Regional Weather Roundup
Issued by NWS

Home | Current Version | Previous Version | Text Only | Print | Product List | Glossary On
Versions: 1 2 3 4 5 6 7 8 9 10 11 12 13 14 15 16 17 18 19 20 21 22 23 24 25 26 27 28 29 30 31 32 33 34 35 36 37 38 39 40 41 42 43 44 45 46 47 48 49 50
000
ASUS43 KDTX 232310
RWRMI
MICHIGAN HOURLY REGIONAL WEATHER ROUNDUP
NATIONAL WEATHER SERVICE DETROIT/PONTIAC MI
ISSUED BY NATIONAL WEATHER SERVICE GRAND RAPIDS MI
700 PM EDT WED AUG 23 2017

NOTE: "FAIR" INDICATES FEW OR NO CLOUDS BELOW 12,000 FEET WITH NO
SIGNIFICANT WEATHER AND/OR OBSTRUCTION TO VISIBILITY.

MIZ047>049-052>055-059>063-066>070-074>076-081>083-240000-
SOUTHEAST LOWER MICHIGAN

CITY           SKY/WX    TMP DP  RH WIND       PRES   REMARKS
ADRIAN         SUNNY     73  48  41 NW9       29.97R
ALMA           SUNNY     69  46  44 NW12G18   29.98S
ANN ARBOR      MOSUNNY   71  50  47 NW8       29.95S
BAD AXE        MOSUNNY   67  48  50 N7        29.96R
DETROIT CITY   CLOUDY    73  49  42 N9        29.94S
DETROIT        PTSUNNY   73  48  41 NW12      29.94S
FLINT          MOSUNNY   70  51  51 NW12      29.95F
GROSSE ILE     PTSUNNY   74  48  39 NW8       29.93S
HILLSDALE      PTSUNNY   70  48  46 NW10      29.98S
HOWELL         PTSUNNY   69  52  53 N3        29.96S

CITY           SKY/WX    TMP DP  RH WIND       PRES   REMARKS
JACKSON        SUNNY     71  51  49 W7        29.97S
LANSING        MOSUNNY   69  48  47 NW8       29.97S
MASON          PTSUNNY   71  51  48 NW9G17    29.97S
MONROE         PTSUNNY   72  52  49 NW7       29.94S
MT. CLEMENS    PTSUNNY   70  54  57 N9        29.94S
PONTIAC        PTSUNNY   70  53  54 W8        29.95S
PORT HOPE        N/A     65  54  67 N8        29.95R
PORT HURON     RAIN      66  54  63 CALM      29.95R
TRI CITIES     MOSUNNY   70  52  52 NW16      29.97R
YPSILANTI      SUNNY     75  51  43 NW10      29.95S
$$
MIZ043>046-050>051-056>058-064>065-071>073-077>080-240000-
SOUTHWEST LOWER MICHIGAN

CITY           SKY/WX    TMP DP  RH WIND       PRES   REMARKS
BATTLE CREEK   SUNNY     70  51  51 NW12      30.00S
BENTON HARBOR  SUNNY     69  51  52 CALM      30.02S
BIG RAPIDS     SUNNY     64  44  47 NW9G20    30.00S
COLDWATER      PTSUNNY   70  47  43 W8        29.99S
HOLLAND        SUNNY     68  52  56 NW8       30.02S
GRAND RAPIDS   MOSUNNY   71  49  45 NW14      29.99S
KALAMAZOO      SUNNY     70  46  42 NW14      30.01S
MARSHALL       PTSUNNY   71  51  50 W14G20    29.99R
MOUNT PLEASANT SUNNY     69  46  43 NW6G16    29.98R
MUSKEGON       MOSUNNY   70  51  51 NW6       30.00F
STURGIS        SUNNY     68  48  49 NW9       30.00S
$$
MIZ016>042-240000-
NORTHERN LOWER MICHIGAN

CITY           SKY/WX    TMP DP  RH WIND       PRES   REMARKS
ALPENA         CLOUDY    62  51  67 NW14      29.97R
BEAVER ISLAND  SUNNY     61  46  57 NW8       30.01S
BELLAIRE       SUNNY     62  46  56 NW5       30.01S
CADILLAC       SUNNY     65  42  43 NW10      30.01S
CHARLEVOIX     SUNNY     62  48  60 NW9       30.03S
GAYLORD        PTSUNNY   59  46  62 VRB6      30.00S
HOUGHTON LAKE  MOSUNNY   63  47  55 NW9       30.00S
MANISTEE       SUNNY     66  49  54 NW7       30.01S
OSCODA         MOSUNNY   65  48  52 NW9G16    29.95S
PELLSTON       PTSUNNY   62  48  60 NW12      30.00S
TRAVERSE CITY  MOSUNNY   65  49  56 N5        30.00R
LUDINGTON      SUNNY     65  49  57 N3        30.01S
$$
MIZ007>008-015-240000-
EASTERN UPPER MICHIGAN

CITY           SKY/WX    TMP DP  RH WIND       PRES   REMARKS
KINROSS        CLOUDY    56  48  74 NW12      29.99R
MACKINAC ISLAN PTSUNNY   60  48  66 NW10      29.99R
NEWBERRY       MOSUNNY   55  45  69 NW10      30.01R
S. S. MARIE    CLOUDY    57  49  74 NW8       29.98R
$$
MIZ004>006-011>014-085-240000-
CENTRAL UPPER MICHIGAN

CITY           SKY/WX    TMP DP  RH WIND       PRES   REMARKS
MANISTIQUE     SUNNY     57  40  52 NW13      30.02R
ESCANABA       MOSUNNY   64  46  52 N6G16     30.01R
MENOMINEE      SUNNY     69  46  43 N9        30.00S
SAWYER-GWINN   SUNNY     57  45  62 NE16      30.04R
$$
MIZ001>003-009>011-084-240000-
WESTERN UPPER MICHIGAN

CITY           SKY/WX    TMP DP  RH WIND       PRES   REMARKS
IRON MOUNTAIN  SUNNY     65  39  38 NW10      30.02R
HOUGHTON       CLOUDY    57  39  51 NW8       30.05S
COPPER HARBOR    N/A     58  45  62 N10       30.03F
IRONWOOD       MOSUNNY   60  40  47 N5        30.08S
$$

ABBREVIATIONS USED IN REMARKS
   TC - TEMPERATURE IN CELSIUS
  WCI - WIND CHILL INDEX
   HX - HEAT INDEX
  VSB - VISIBILITY




USA.gov is the U.S. government's official web portal to all federal, state and local government web resources and services.